DMSP 5D-2 F11 DEB

Satellite information

Favourite Embed

Satellite Type and Status

DEBRISIN ORBIT

Key statistics

Satellite DMSP 5D-2 F11 DEB at a glance.

Uptime

12435

Days in orbit

Revolutions

≈ 14.4

Per day

Orbit

SSO

Sun Synchronous Orbit

Inclination

98.9

Latest

Satellite identification and parameters

Extended collection of information and parameters for DMSP 5D-2 F11 DEB.

Object identification

Identified? True

Debris? True

Object name: DMSP 5D-2 F11 DEB

International designator: 1991-082BQ

Object number (NORAD): 29069

Object ID (CCSDS): 29069

Country: UNITED STATES OF AMERICA (US)

Current information (Y/N): Y

RCS size: SMALL

Orbital parameters

Period: 99.921 minutes

Inclination: 98.9223 deg

SMA: 7132.897 km

Apoapsis: 801.257 km

Periapsis: 708.267 km

RAAN: 52.2097 deg

Eccentricy: 0.00651838

Argument of periapsis: 209.0386 deg

Mean anomaly: 181.2241 deg

Mean motion: 14.41132322 rev/day

Mean motion (dot): 0.00011432 rev/day2

B* drag term: 0.0034679315 1/REarth

Two-line elements (TLE)

Creation date: Dec. 12, 2025, 10:14 a.m.

Reference frame: TEME

Reference center: EARTH

Epoch: Dec. 12, 2025, 3:09 a.m. UTC

TLE line 0: 0 DMSP 5D-2 F11 DEB

TLE line 1: 1 29069U 91082BQ 25346.13190777 .00011432 00000-0 34679-2 0 9993

TLE line 2: 2 29069 98.9223 52.2097 0065184 209.0386 181.2241 14.41132322 89816

Live tracking on map

Real-time ground track for satellite DMSP 5D-2 F11 DEB.

In-orbit conjunctions

A list of the most updated potential collisions computed for object DMSP 5D-2 F11 DEB.

Target Orbit TCA Probability of collision Miss distance Type
IRIDIUM 911 LEO 2025-10-12 17:02:03 0.0001145434 409.0 (m) PAYLOAD
IRS P2 SSO 2024-06-25 17:17:46 0.0001369992 796.0 (m) PAYLOAD

Associated space launch

Military meteorological satellite

DMSP 5D-2 F11 DEB was lifted into orbit during the mission ‘Atlas E | DMSP-5D2 F11’, on board a Atlas E space rocket.

The launch took place on Nov. 28, 1991, 1:23 p.m. from Space Launch Complex 3W.

For more information about the launch, click the button.

Launch to space Atlas E | DMSP-5D2 F11
Atlas E | DMSP-5D2 F11

Agency: N/A

Status: Launch Successful

Launch date: Nov. 28, 1991, 1:23 p.m. UTC

Rocket: Atlas E

Launch pad: Space Launch Complex 3W

Location: Vandenberg SFB, CA, USA

...

Latest news about this satellite

There are no fresh news available about this satellite. Check back as we update our databases every day.


Newsletter sign-up

Weekly statistics, charts and insights to help you stay on top of the space industry.